User: anonymous   Login
Location: Unspecified
(0.0000°N, 0.0000°E)
Time: 16:02:34
(UTC+00:00)
Language:

USA 207 - Orbit

View from above orbital plane
View from above orbital plane
View from above satellite
View from above satellite

Ground track
Ground track

The orbit data is extracted from the following two-line orbital elements,

1 35815U 09047A   14320.62370952 0.00000000  00000-0  00000-0 0    09
2 35815   0.0710 327.7506 0004148   0.4079 359.6192  1.00270000    04
Epoch (UTC): 16 November 2014 14:58:08
Eccentricity: 0.0004148
inclination: 0.0710°
perigee height: 35769 km
apogee height: 35804 km
right ascension of ascending node: 327.7506°
argument of perigee: 0.4079°
revolutions per day: 1.00270000
mean anomaly at epoch: 359.6192°
orbit number at epoch: 0

The dashed part of the orbit path shows where the satellite is in the earth's shadow,  

DLR